Regional Weather Roundup
Issued by NWS Sioux Falls, SD

Home | Current Version | Previous Version | Graphics & Text | Print | Product List | Glossary Off
Versions: 1 2 3 4 5 6 7 8 9 10 11 12 13 14 15 16 17 18 19 20 21 22 23 24 25 26 27 28 29 30 31 32 33 34 35 36 37 38 39 40 41 42 43 44 45 46 47 48 49 50

903
ASUS43 KFSD 241902
RWRFSD

WEATHER ROUNDUP FOR SE SOUTH DAKOTA/SW MINNESOTA/NW IOWA
NATIONAL WEATHER SERVICE SIOUX FALLS SD
200 PM CDT SUN JUL 24 2016

NOTE: "FAIR" INDICATES FEW OR NO CLOUDS BELOW 12,000 FEET WITH NO
SIGNIFICANT WEATHER AND OR OBSTRUCTIONS TO VISIBILITY.


SDZ038>040-050-052>070-242000-
SOUTHEAST SOUTH DAKOTA

CITY           SKY/WX    TMP DP  RH WIND       PRES   REMARKS
BROOKINGS      LGT RAIN  73  63  70 W8        30.06R
CHAMBERLAIN    CLOUDY    78  60  52 NW7       30.10S
HURON          PTSUNNY   74  60  61 W6        30.05F
MADISON        LGT RAIN  72  64  78 W7        30.07S
MITCHELL       CLOUDY    74  63  68 W3        30.09R
SIOUX FALLS    CLOUDY    76  61  59 W7        30.07R
WINNER         FAIR      82  54  37 NW5       30.11S
YANKTON        CLOUDY    77  57  50 NW17      30.03F
$$

MNZ071-072-080-081-089-090-097-098-242000-
SOUTHWEST MINNESOTA

CITY           SKY/WX    TMP DP  RH WIND       PRES   REMARKS
FAIRMONT       SUNNY     81  48  32 NW9       29.96S
JACKSON        MOSUNNY   77  59  53 NW7       30.00F
LUVERNE        CLOUDY    73  59  60 W9        30.09R
MARSHALL       PTSUNNY   77  63  61 NW9       29.99R
MONTEVIDEO     CLOUDY    81  64  57 NW8       29.97S
REDWOOD FALLS  SUNNY     79  59  50 NW13G21   29.95F
TRACY          CLOUDY    78  65  64 NW8       30.00R
WINDOM         MOSUNNY   81  61  50 NW10      29.99S
WORTHINGTON    PTSUNNY   78  62  57 NW13      30.02S
$$

IAZ001>003-012>014-020>022-031-032-NEZ013-014-SDZ071-242000-
NORTHWEST IOWA

CITY           SKY/WX    TMP DP  RH WIND       PRES   REMARKS
ESTHERVILLE    MOSUNNY   76  62  62 N6        29.97F
LE MARS        SUNNY     84  63  48 NW15      30.05R
SHELDON        CLOUDY    79  66  65 NW9       30.03R
SIOUX CITY     PTSUNNY   89  61  38 NW15      30.02R
SPENCER        CLOUDY    82  62  50 NW10      29.99S
STORM LAKE     CLOUDY    81  64  57 MISG      30.01F
$$

ABBREVIATIONS USED IN REMARKS
   TC - TEMPERATURE IN CELSIUS
  WCI - WIND CHILL INDEX
   HX - HEAT INDEX
  VSB - VISIBILITY





USA.gov is the U.S. government's official web portal to all federal, state and local government web resources and services.